EW6425 Hays River CA current weather conditions

sailwx.info

Wind from 238 at 3 knots gusting 8

Air temperature 21.7° C
Dewpoint 15.9° C

Last reported at 2020-May-29 01:05 UTC.
Time now 2020-May-29 02:47 UTC

Location: N 46°06' W 061°16'.
View on Google Maps.

See reports from other nearby stations

  
Tides and Currents Weather Stations Pressure Air Temp Water Temp Dewpoint Dewpoint Depression Visibility Wind Speed Wind Dir Waves Ship Positions
date/time (UTC)wind fromknots sea level pressurealtimeterstation pressurevisibilityair tempwater tempwave heightnotes
2020-May-29 01:05 238 3 gusting 8 21.7
2020-May-29 01:00 227 4 gusting 9 21.7
2020-May-29 00:55 225 3 gusting 7 21.7
2020-May-29 00:50 211 3 gusting 10 21.7
2020-May-29 00:40 234 4 gusting 10 21.7
2020-May-29 00:35 230 4 gusting 11 22.2
2020-May-29 00:30 221 5 gusting 11 22.2
2020-May-29 00:25 202 3 gusting 10 22.2
2020-May-29 00:15 218 5 gusting 12 22.2
2020-May-29 00:10 214 3 gusting 13 22.8
2020-May-29 00:05 240 7 gusting 13 22.2
2020-May-29 00:00 235 5 gusting 12 22.2
2020-May-28 23:55 235 6 gusting 12 22.8
2020-May-28 23:45 225 4 gusting 12 22.8
2020-May-28 23:40 234 5 gusting 13 22.8
2020-May-28 23:30 250 7 gusting 16 23.3
2020-May-28 23:25 222 7 gusting 16 23.3
2020-May-28 23:20 244 9 gusting 15 23.3
2020-May-28 23:10 222 7 gusting 16 23.9
2020-May-28 23:05 242 8 gusting 15 23.9
2020-May-28 22:55 261 6 gusting 13 24.4
2020-May-28 22:50 205 3 gusting 8 25.0
2020-May-28 22:45 209 4 gusting 8 25.0
2020-May-28 22:40 220 4 gusting 13 25.0
2020-May-28 22:35 272 6 gusting 13 25.6
2020-May-28 22:25 219 5 gusting 14 25.6
2020-May-28 22:20 256 6 gusting 14 25.6
2020-May-28 22:10 184 6 gusting 13 25.6
2020-May-28 22:05 227 3 gusting 11 25.6
2020-May-28 22:00 243 6 gusting 11 25.6
2020-May-28 21:55 219 4 gusting 13 25.6
2020-May-28 21:50 221 8 gusting 13 25.6
2020-May-28 21:40 210 5 gusting 10 25.0
2020-May-28 21:35 250 4 gusting 9 25.0
2020-May-28 21:30 230 5 gusting 10 25.0
2020-May-28 21:25 224 3 gusting 11 25.0
2020-May-28 21:20 226 6 gusting 13 25.0
2020-May-28 21:15 214 6 gusting 16 25.0
2020-May-28 21:10 186 8 gusting 14 25.0
2020-May-28 21:05 213 6 gusting 16 25.0
2020-May-28 21:00 229 6 gusting 16 25.0
2020-May-28 20:55 221 7 gusting 17 25.0
2020-May-28 20:50 263 7 gusting 17 25.6
2020-May-28 20:40 208 5 gusting 13 25.6
2020-May-28 20:35 225 7 gusting 13 25.6
2020-May-28 20:30 172 6 gusting 17 26.1
2020-May-28 20:25 183 9 gusting 17 26.1
2020-May-28 20:20 215 6 gusting 19 26.1
2020-May-28 20:15 229 8 gusting 18 25.6
2020-May-28 20:10 244 9 gusting 17 25.6
2020-May-28 20:05 213 8 gusting 17 25.6
2020-May-28 20:00 227 7 gusting 17 25.6
2020-May-28 19:51 224 7 gusting 22 26.1
2020-May-28 19:46 265 10 gusting 22 26.1
2020-May-28 19:40 218 9 gusting 15 26.1
2020-May-28 19:36 240 8 gusting 15 26.1
2020-May-28 19:32 231 6 gusting 15 26.1
2020-May-28 19:25 250 9 gusting 22 26.1
2020-May-28 19:20 233 12 gusting 22 26.7
2020-May-28 19:16 266 9 gusting 19 26.7
2020-May-28 19:10 227 10 gusting 19 26.7
2020-May-28 19:05 232 6 gusting 17 26.7
2020-May-28 19:01 261 7 gusting 19 27.2
2020-May-28 18:55 268 6 gusting 20 27.2
2020-May-28 18:50 208 9 gusting 22 27.2
2020-May-28 18:47 218 9 gusting 22 27.2
2020-May-28 18:40 238 11 gusting 26 27.2
2020-May-28 18:35 277 14 gusting 26 27.2
2020-May-28 18:32 185 13 gusting 20 27.2
2020-May-28 18:26 234 11 gusting 22 27.2
2020-May-28 18:20 228 11 gusting 22 27.2
2020-May-28 18:16 219 7 gusting 22 27.2
2020-May-28 18:10 236 10 gusting 22 27.2
2020-May-28 18:05 148 6 gusting 20 27.2
2020-May-28 18:00 234 8 gusting 18 26.7
2020-May-28 17:55 239 10 gusting 20 27.2
2020-May-28 17:50 259 12 gusting 28 27.2
2020-May-28 17:46 278 7 gusting 28 27.2
2020-May-28 17:40 245 8 gusting 20 26.7
2020-May-28 17:35 243 13 gusting 21 26.7
2020-May-28 17:31 207 11 gusting 23 26.1
2020-May-28 17:25 292 11 gusting 22 26.1
2020-May-28 17:20 227 8 gusting 19 26.1
2020-May-28 17:16 232 12 gusting 19 26.1
2020-May-28 17:10 252 10 gusting 22 26.1
2020-May-28 17:05 221 10 gusting 22 26.1
2020-May-28 17:00 196 13 gusting 21 26.1
2020-May-28 16:55 233 13 gusting 22 26.1
2020-May-28 16:50 213 11 gusting 21 26.1
2020-May-28 16:46 251 14 gusting 21 26.1
2020-May-28 16:41 184 11 gusting 24 26.1
2020-May-28 16:35 252 10 gusting 24 25.6
2020-May-28 16:31 201 12 gusting 22 25.6
2020-May-28 16:25 247 11 gusting 22 25.6
2020-May-28 16:20 257 9 gusting 21 25.0
2020-May-28 16:16 242 13 gusting 20 25.0
2020-May-28 16:10 261 9 gusting 20 25.6
2020-May-28 16:05 230 10 gusting 17 25.6
2020-May-28 16:00 261 8 gusting 24 25.0
2020-May-28 15:55 254 13 gusting 24 25.0
2020-May-28 15:50 265 13 gusting 23 25.0
2020-May-28 15:46 284 7 gusting 20 25.0
2020-May-28 15:40 240 7 gusting 20 25.0
2020-May-28 15:35 236 9 gusting 20 25.0
2020-May-28 15:30 250 10 gusting 17 24.4
2020-May-28 15:25 267 10 gusting 22 24.4
2020-May-28 15:20 269 9 gusting 21 24.4
2020-May-28 15:15 184 11 gusting 21 24.4
2020-May-28 15:10 209 10 gusting 19 24.4
2020-May-28 15:05 218 10 gusting 19 24.4
2020-May-28 15:01 225 9 gusting 21 24.4
2020-May-28 14:55 252 8 gusting 21 24.4
2020-May-28 14:50 238 12 gusting 21 24.4
2020-May-28 14:45 259 8 gusting 18 24.4
2020-May-28 14:40 236 10 gusting 18 24.4
2020-May-28 14:35 225 9 gusting 19 24.4
2020-May-28 14:30 236 6 gusting 19 24.4
2020-May-28 14:25 234 10 gusting 19 23.9
2020-May-28 14:20 231 6 gusting 18 23.9
2020-May-28 14:15 174 10 gusting 19 23.3
2020-May-28 14:10 186 9 gusting 19 23.3
2020-May-28 14:00 221 11 gusting 18 23.3
2020-May-28 13:55 233 6 gusting 17 23.3
2020-May-28 13:50 232 7 gusting 17 23.3
2020-May-28 13:40 221 9 gusting 18 22.8
2020-May-28 13:35 190 6 gusting 13 22.8
2020-May-28 13:25 188 7 gusting 16 22.8
2020-May-28 13:20 186 8 gusting 13 22.2
2020-May-28 13:15 221 6 gusting 12 22.2
2020-May-28 13:10 236 5 gusting 11 22.2
2020-May-28 13:05 229 6 gusting 15 21.7
2020-May-28 12:55 196 5 gusting 11 21.1
2020-May-28 12:50 257 4 gusting 7 20.6
2020-May-28 12:41 244 5 gusting 11 20.6
2020-May-28 12:36 244 5 gusting 11 20.0
2020-May-28 12:31 205 2 gusting 15 20.0
2020-May-28 12:25 221 5 gusting 15 20.0
2020-May-28 12:20 194 5 gusting 10 20.0
2020-May-28 12:17 240 5 gusting 10 19.4
2020-May-28 12:11 230 6 gusting 9 19.4
2020-May-28 12:06 229 4 gusting 9 19.4
2020-May-28 12:01 269 4 gusting 11 19.4
2020-May-28 11:56 234 6 gusting 13 19.4
2020-May-28 11:50 217 6 gusting 13 19.4
2020-May-28 11:46 207 3 gusting 13 19.4
2020-May-28 11:41 194 5 gusting 13 19.4
2020-May-28 11:35 236 6 gusting 13 19.4
2020-May-28 11:31 178 6 gusting 13 19.4
2020-May-28 11:26 180 3 gusting 13 20.0
2020-May-28 11:20 227 7 gusting 14 20.0
2020-May-28 11:16 229 6 gusting 13 20.0
2020-May-28 11:10 230 6 gusting 13 19.4
2020-May-28 11:06 225 6 gusting 13 18.9
2020-May-28 11:01 238 6 gusting 13 18.3
2020-May-28 10:55 209 4 gusting 8 17.8
2020-May-28 10:50 197 2 gusting 8 17.2
2020-May-28 10:46 235 3 gusting 7 16.7
2020-May-28 10:40 215 3 gusting 8 16.7
2020-May-28 10:35 232 3 gusting 9 16.7
2020-May-28 10:31 217 3 gusting 9 16.1
2020-May-28 10:25 220 3 gusting 7 16.1
2020-May-28 10:20 050 0 gusting 3 15.6
2020-May-28 10:15 050 0 gusting 3 15.6
2020-May-28 10:10 050 0 gusting 4 15.0
2020-May-28 10:05 050 0 gusting 4 14.4
2020-May-28 10:00 050 0 gusting 4 14.4
2020-May-28 09:55 049 3 gusting 4 14.4
2020-May-28 09:50 049 0 gusting 5 14.4
2020-May-28 09:45 049 1 gusting 5 13.9
2020-May-28 09:40 049 1 gusting 4 13.9
2020-May-28 09:35 049 1 gusting 6 13.9
2020-May-28 09:30 049 2 gusting 6 13.9
2020-May-28 09:25 032 0 gusting 4 13.9
2020-May-28 09:20 032 0 gusting 3 13.9
2020-May-28 09:16 032 13.9
2020-May-28 09:10 032 13.9
2020-May-28 09:05 032 0 gusting 3 13.9
2020-May-28 09:00 032 1 gusting 2 13.3
2020-May-28 08:55 032 0 gusting 2 13.3
2020-May-28 08:50 032 0 gusting 3 13.3
2020-May-28 08:45 032 1 gusting 3 13.3
2020-May-28 08:40 032 13.3
2020-May-28 08:35 032 13.3
2020-May-28 08:30 032 13.3
2020-May-28 08:25 032 13.3
2020-May-28 08:20 032 13.3
2020-May-28 08:15 032 13.3
2020-May-28 08:10 032 13.3
2020-May-28 08:05 032 13.3
2020-May-28 08:00 032 13.3
2020-May-28 07:55 032 13.9
2020-May-28 07:50 032 13.9
2020-May-28 07:45 032 13.9
2020-May-28 07:40 032 13.9
2020-May-28 07:35 032 13.9
2020-May-28 07:30 032 13.9
2020-May-28 07:25 032 13.9
2020-May-28 07:20 032 13.9
2020-May-28 07:10 032 13.9
2020-May-28 07:05 032 13.9
2020-May-28 07:00 032 13.9
2020-May-28 06:55 032 13.9
2020-May-28 06:45 032 13.9
2020-May-28 06:40 032 0 gusting 2 13.9
2020-May-28 06:35 032 0 gusting 3 14.4
2020-May-28 06:25 032 1 gusting 3 14.4
2020-May-28 06:20 032 0 gusting 3 14.4
2020-May-28 06:15 032 0 gusting 2 14.4
2020-May-28 06:10 032 1 gusting 2 14.4
2020-May-28 06:05 032 0 gusting 2 14.4
2020-May-28 06:00 032 0 gusting 2 14.4
2020-May-28 05:55 032 0 gusting 2 14.4
2020-May-28 05:45 032 14.4
2020-May-28 05:40 032 0 gusting 1 15.0
2020-May-28 05:35 032 0 gusting 2 15.0
2020-May-28 05:25 032 0 gusting 1 15.0
2020-May-28 05:20 032 0 gusting 1 15.0
2020-May-28 05:15 032 15.0
2020-May-28 05:10 032 15.0
2020-May-28 05:05 032 15.0
2020-May-28 05:00 032 0 gusting 1 15.0
2020-May-28 04:55 032 15.0
2020-May-28 04:47 032 14.4
2020-May-28 04:41 032 14.4
2020-May-28 04:40 032 14.4
2020-May-28 04:35 032 14.4
2020-May-28 04:26 032 14.4
2020-May-28 04:21 032 14.4
2020-May-28 04:16 032 14.4
2020-May-28 04:11 032 14.4
2020-May-28 04:06 032 14.4
2020-May-28 04:01 032 14.4
2020-May-28 03:56 032 14.4
2020-May-28 03:51 032 14.4
2020-May-28 03:46 032 14.4
2020-May-28 03:41 032 14.4
2020-May-28 03:36 032 14.4
2020-May-28 03:32 032 14.4
2020-May-28 03:25 032 14.4
2020-May-28 03:20 032 14.4
2020-May-28 03:17 032 14.4
2020-May-28 03:10 032 14.4
2020-May-28 03:05 032 14.4
2020-May-28 03:01 032 14.4
2020-May-28 02:56 032 13.9
2020-May-28 02:50 032 13.9
2020-May-28 02:46 032 13.9
2020-May-28 02:41 032 13.9
2020-May-28 02:36 032 13.9
2020-May-28 02:31 032 13.9
2020-May-28 02:25 032 13.9
2020-May-28 02:20 032 13.9
2020-May-28 02:16 032 13.9
2020-May-28 02:11 032 13.9
2020-May-28 02:06 032 13.9
2020-May-28 02:01 032 13.9
2020-May-28 01:55 032 13.9
2020-May-28 01:50 032 13.9
2020-May-28 01:46 032 13.9
2020-May-28 01:40 032 13.3
2020-May-28 01:35 032 13.9
2020-May-28 01:31 032 13.9
2020-May-28 01:25 032 13.9
2020-May-28 01:20 032 13.9
2020-May-28 01:15 032 14.4
2020-May-28 01:10 032 14.4
2020-May-28 01:06 032 14.4
2020-May-28 01:01 032 0 gusting 1 14.4
2020-May-28 00:55 032 15.0
2020-May-28 00:50 032 14.4
2020-May-28 00:46 032 15.0
2020-May-28 00:40 032 15.0
2020-May-28 00:35 032 15.6
2020-May-28 00:31 032 15.6
2020-May-28 00:25 032 15.6
2020-May-28 00:20 032 0 gusting 1 16.1
2020-May-28 00:15 032 16.1
2020-May-28 00:10 032 16.1
2020-May-28 00:05 032 16.7
2020-May-28 00:00 032 0 gusting 1 16.7
2020-May-27 23:55 032 16.7
2020-May-27 23:51 032 17.2
2020-May-27 23:46 032 17.2
2020-May-27 23:40 032 17.2
2020-May-27 23:35 032 17.2
2020-May-27 23:30 032 17.2
2020-May-27 23:25 032 17.2
2020-May-27 23:20 032 17.8
2020-May-27 23:15 032 17.8
2020-May-27 23:10 032 17.8
2020-May-27 23:05 032 0 gusting 3 17.8
2020-May-27 23:01 032 0 gusting 3 17.8
2020-May-27 22:55 032 1 gusting 4 17.8
2020-May-27 22:50 028 1 gusting 4 17.8
2020-May-27 22:45 027 1 gusting 4 18.3
2020-May-27 22:40 025 2 gusting 4 18.3
2020-May-27 22:35 028 2 gusting 5 18.3
2020-May-27 22:30 043 2 gusting 5 18.3
2020-May-27 22:25 044 1 gusting 4 18.3
2020-May-27 22:20 042 1 gusting 5 18.9
2020-May-27 22:15 042 1 gusting 5 18.9
2020-May-27 22:10 057 1 gusting 3 18.9
2020-May-27 22:05 058 0 gusting 3 18.9
2020-May-27 22:01 058 1 gusting 3 18.9
2020-May-27 21:55 058 1 gusting 3 18.9
2020-May-27 21:50 058 0 gusting 2 18.9
2020-May-27 21:46 058 0 gusting 3 18.9
2020-May-27 21:40 058 1 gusting 4 18.9
2020-May-27 21:35 057 2 gusting 4 18.9
2020-May-27 21:30 049 1 gusting 4 18.9
2020-May-27 21:25 051 2 gusting 4 18.9
2020-May-27 21:20 051 0 gusting 4 18.9
2020-May-27 21:15 051 1 gusting 4 18.9
2020-May-27 21:10 051 2 gusting 5 18.9
2020-May-27 21:05 048 3 gusting 6 18.9
2020-May-27 21:00 049 3 gusting 7 19.4
2020-May-27 20:55 040 4 gusting 7 19.4
2020-May-27 20:50 320 3 gusting 6 20.0
2020-May-27 20:45 271 3 gusting 6 20.0
2020-May-27 20:40 155 1 gusting 6 20.0
2020-May-27 20:35 160 2 gusting 6 20.0
2020-May-27 20:31 161 4 gusting 6 20.0
2020-May-27 20:25 170 3 gusting 8 20.0
2020-May-27 20:20 215 5 gusting 8 20.0
2020-May-27 20:15 188 4 gusting 8 20.0
2020-May-27 20:10 202 4 gusting 7 20.0
2020-May-27 20:05 208 3 gusting 7 20.0
2020-May-27 20:00 184 1 gusting 7 19.4
2020-May-27 19:55 216 3 gusting 7 19.4
2020-May-27 19:50 202 2 gusting 6 19.4
2020-May-27 19:45 236 2 gusting 6 18.9
2020-May-27 19:40 183 2 gusting 6 18.9
2020-May-27 19:35 208 2 gusting 6 18.9
2020-May-27 19:25 200 1 gusting 6 18.9
2020-May-27 19:20 275 3 gusting 6 18.3
2020-May-27 19:10 234 1 gusting 6 18.3
2020-May-27 19:05 241 3 gusting 9 18.3
2020-May-27 19:00 217 2 gusting 6 18.3
2020-May-27 18:55 209 2 gusting 5 18.3
2020-May-27 18:50 202 2 gusting 5 18.3
2020-May-27 18:45 213 0 gusting 5 18.3
2020-May-27 18:40 224 0 gusting 6 18.3
2020-May-27 18:35 227 3 gusting 6 18.3
2020-May-27 18:30 209 3 gusting 7 17.8
2020-May-27 18:25 198 3 gusting 7 17.8
2020-May-27 18:20 172 2 gusting 6 17.8
2020-May-27 18:15 236 3 gusting 7 17.8
2020-May-27 18:10 235 0 gusting 3 17.8
2020-May-27 18:05 240 1 gusting 6 17.8
2020-May-27 18:00 217 3 gusting 6 17.8
2020-May-27 17:55 180 2 gusting 5 17.8
2020-May-27 17:50 198 2 gusting 5 17.8
2020-May-27 17:40 202 1 gusting 5 17.2
2020-May-27 17:35 193 1 gusting 4 17.2
2020-May-27 17:25 196 2 gusting 5 17.2
2020-May-27 17:20 198 1 gusting 4 17.2
2020-May-27 17:10 188 2 gusting 5 17.2
2020-May-27 17:05 195 1 gusting 5 17.2
2020-May-27 17:00 163 0 gusting 4 17.2
2020-May-27 16:55 163 1 gusting 4 17.2
2020-May-27 16:50 163 0 gusting 5 17.2
2020-May-27 16:45 163 2 gusting 5 16.7
2020-May-27 16:40 165 2 gusting 5 16.7
2020-May-27 16:35 167 1 gusting 4 16.7
2020-May-27 16:25 165 2 gusting 5 16.7
2020-May-27 16:20 169 2 gusting 5 16.7
2020-May-27 16:15 169 1 gusting 5 16.7
2020-May-27 16:10 169 3 gusting 6 16.7
2020-May-27 16:05 168 3 gusting 5 16.7
2020-May-27 15:55 188 0 gusting 3 16.7
2020-May-27 15:50 188 1 gusting 3 16.7
2020-May-27 15:45 190 0 gusting 3 16.7
2020-May-27 15:40 190 1 gusting 3 16.7
2020-May-27 15:35 190 1 gusting 3 16.7
2020-May-27 15:30 190 16.7
2020-May-27 15:25 190 16.7
2020-May-27 15:20 190 0 gusting 3 16.7
2020-May-27 15:15 192 0 gusting 3 16.7
2020-May-27 15:10 192 2 gusting 3 16.7
2020-May-27 15:05 192 0 gusting 6 16.7
2020-May-27 15:00 192 2 gusting 6 16.7
2020-May-27 14:55 195 1 gusting 4 16.7
2020-May-27 14:50 194 0 gusting 3 16.7
2020-May-27 14:45 194 1 gusting 4 16.7
2020-May-27 14:40 194 1 gusting 4 16.7
2020-May-27 14:35 194 1 gusting 4 16.7
2020-May-27 14:30 194 1 gusting 4 16.7
2020-May-27 14:25 203 0 gusting 3 16.7
2020-May-27 14:20 203 1 gusting 3 16.7
2020-May-27 14:15 206 1 gusting 3 16.1
2020-May-27 14:10 206 1 gusting 3 16.1
2020-May-27 14:05 206 1 gusting 3 16.1
2020-May-27 14:00 206 0 gusting 3 16.1
2020-May-27 13:55 206 1 gusting 3 16.1
2020-May-27 13:50 211 0 gusting 2 16.1
2020-May-27 13:41 213 0 gusting 5 16.1
2020-May-27 13:40 213 0 gusting 5 16.1
2020-May-27 13:31 163 2 gusting 6 16.1
2020-May-27 13:26 161 2 gusting 6 16.1
2020-May-27 13:21 167 1 gusting 4 16.1
2020-May-27 13:17 173 0 gusting 3 16.1
2020-May-27 13:11 175 1 gusting 7 16.1
2020-May-27 13:05 173 2 gusting 7 16.1
2020-May-27 13:01 199 2 gusting 4 16.1
2020-May-27 12:51 171 2 gusting 4 16.1
2020-May-27 12:46 171 2 gusting 6 16.1
2020-May-27 12:40 168 2 gusting 6 16.1
2020-May-27 12:36 217 1 gusting 5 16.1
2020-May-27 12:32 224 0 gusting 4 16.1
2020-May-27 12:21 189 1 gusting 4 16.1
2020-May-27 12:16 188 0 gusting 3 16.1
2020-May-27 12:11 188 0 gusting 4 16.1
2020-May-27 12:05 188 2 gusting 5 16.1
2020-May-27 12:01 171 1 gusting 6 16.1
2020-May-27 11:56 169 2 gusting 6 16.1
2020-May-27 11:50 195 2 gusting 6 16.1
2020-May-27 11:46 234 2 gusting 6 16.1
2020-May-27 11:40 203 1 gusting 6 16.1
2020-May-27 11:35 217 0 gusting 6 16.1
2020-May-27 11:31 225 1 gusting 6 16.1
2020-May-27 11:25 217 2 gusting 6 16.1
2020-May-27 11:20 201 2 gusting 5 16.1
2020-May-27 11:16 209 3 gusting 6 16.1
2020-May-27 11:10 207 1 gusting 7 16.1
2020-May-27 11:05 188 3 gusting 7 16.1
2020-May-27 11:02 216 1 gusting 6 16.7
2020-May-27 10:55 220 2 gusting 7 16.7
2020-May-27 10:50 214 2 gusting 7 16.7
2020-May-27 10:45 223 3 gusting 6 16.7
2020-May-27 10:40 231 3 gusting 7 16.7
2020-May-27 10:35 213 2 gusting 5 16.7
2020-May-27 10:30 196 2 gusting 5 16.7
2020-May-27 10:25 174 2 gusting 5 16.7
2020-May-27 10:20 206 0 gusting 5 16.7
2020-May-27 10:16 212 2 gusting 8 16.7
2020-May-27 10:10 224 4 gusting 8 16.7
2020-May-27 10:06 232 2 gusting 6 16.7
2020-May-27 10:01 217 3 gusting 9 16.7
2020-May-27 09:55 223 4 gusting 9 16.7
2020-May-27 09:50 211 4 gusting 12 16.7
2020-May-27 09:46 237 4 gusting 8 16.7
2020-May-27 09:40 221 4 gusting 6 16.7
2020-May-27 09:35 202 3 gusting 8 16.7
2020-May-27 09:31 196 4 gusting 8 16.7
2020-May-27 09:25 237 4 gusting 9 16.7
2020-May-27 09:20 246 4 gusting 9 16.7
2020-May-27 09:16 240 3 gusting 7 16.7
2020-May-27 09:10 232 0 gusting 7 16.7
2020-May-27 09:05 194 2 gusting 7 16.7
2020-May-27 09:01 210 2 gusting 4 16.7
2020-May-27 08:55 210 1 gusting 4 16.7
2020-May-27 08:50 209 1 gusting 4 16.7
2020-May-27 08:45 211 1 gusting 4 16.7
2020-May-27 08:40 216 16.7
2020-May-27 08:35 217 1 gusting 8 16.7
2020-May-27 08:31 229 3 gusting 8 16.7
2020-May-27 08:25 232 0 gusting 6 16.7
2020-May-27 08:20 247 3 gusting 6 16.7
2020-May-27 08:15 214 4 gusting 6 16.7
2020-May-27 08:10 193 1 gusting 7 17.2
2020-May-27 08:05 250 3 gusting 8 17.2
2020-May-27 08:00 254 4 gusting 11 17.2
2020-May-27 07:55 228 5 gusting 11 17.2
2020-May-27 07:50 232 2 gusting 8 17.2
2020-May-27 07:45 249 3 gusting 13 17.2
2020-May-27 07:40 206 4 gusting 13 17.2
2020-May-27 07:35 212 4 gusting 13 17.2
2020-May-27 07:25 223 5 gusting 12 17.2
2020-May-27 07:20 198 5 gusting 12 17.2
2020-May-27 07:15 243 5 gusting 9 17.2
2020-May-27 07:10 221 4 gusting 8 17.2
2020-May-27 07:05 230 3 gusting 9 17.2
2020-May-27 07:00 206 2 gusting 8 17.2
2020-May-27 06:55 207 4 gusting 8 17.8
2020-May-27 06:50 203 5 gusting 8 17.8
2020-May-27 06:40 190 5 gusting 9 17.8
2020-May-27 06:35 229 3 gusting 9 17.8
2020-May-27 06:25 215 6 gusting 10 17.8
2020-May-27 06:15 220 4 gusting 10 17.8
2020-May-27 06:10 217 4 gusting 9 17.8
2020-May-27 06:05 238 5 gusting 10 17.8
2020-May-27 06:00 192 6 gusting 10 17.8
2020-May-27 05:55 201 2 gusting 9 17.8
2020-May-27 05:50 227 6 gusting 10 17.8
2020-May-27 05:45 202 6 gusting 10 17.8
2020-May-27 05:40 230 4 gusting 12 17.8
2020-May-27 05:35 205 5 gusting 12 17.8
2020-May-27 05:25 234 7 gusting 15 17.8
2020-May-27 05:20 229 6 gusting 13 17.8
2020-May-27 05:10 248 5 gusting 13 17.8
2020-May-27 05:05 205 6 gusting 14 17.8
2020-May-27 05:00 227 7 gusting 16 17.8
2020-May-27 04:55 246 6 gusting 16 18.3
2020-May-27 04:50 233 6 gusting 16 18.3
2020-May-27 04:45 192 7 gusting 16 18.3
2020-May-27 04:40 205 5 gusting 14 18.3
2020-May-27 04:35 207 7 gusting 15 18.3
2020-May-27 04:30 187 6 gusting 16 18.9
2020-May-27 04:25 217 8 gusting 13 18.9
2020-May-27 04:20 213 6 gusting 13 18.9
2020-May-27 04:10 229 6 gusting 14 18.9
2020-May-27 04:05 257 6 gusting 14 18.9
2020-May-27 04:00 256 4 gusting 13 18.9
2020-May-27 03:55 250 6 gusting 15 18.3
2020-May-27 03:46 246 6 gusting 16 18.3
2020-May-27 03:40 240 8 gusting 16 18.3
2020-May-27 03:36 229 6 gusting 17 18.3
2020-May-27 03:31 231 6 gusting 17 18.3
2020-May-27 03:25 236 9 gusting 17 18.3
2020-May-27 03:21 221 7 gusting 13 18.3
2020-May-27 03:17 224 4 gusting 12 17.8
2020-May-27 03:10 238 4 gusting 12 17.8
2020-May-27 03:05 219 5 gusting 10 18.3
2020-May-27 03:01 240 5 gusting 11 18.3
2020-May-27 02:56 221 5 gusting 12 18.3
2020-May-27 02:51 200 5 gusting 13 18.3
2020-May-27 02:47 225 6 gusting 13 18.3
2020-May-27 02:40 207 3 gusting 10 18.3
2020-May-27 02:36 225 6 gusting 10 18.3
2020-May-27 02:30 220 3 gusting 11 18.3
2020-May-27 02:25 223 4 gusting 11 18.3
2020-May-27 02:20 202 3 gusting 9 18.3
2020-May-27 02:16 240 5 gusting 10 18.3
2020-May-27 02:11 211 6 gusting 10 18.3
2020-May-27 02:05 186 4 gusting 10 18.3
2020-May-27 02:01 201 4 gusting 10 18.3